DFJOE LEJR-LFBL

Flight info

Callsign DFJOE
Flight time 1h 35m
Altitude 26000
Route PEPAS M445 SOPET N608 GIROM DCT AGN DCT PERIG
Aircraft P46T/L-SBDGRWY/SB1

Departure

Time 2026-05-06 16:13
Airport Jerez Airport (LEJR)

Arrival

Time 2026-05-06 17:48
Airport Limoges Airport (LFBL)
Time Latitude Longitude Altitude Speed Heading
2026-05-06 16:05 36.74394 -6.06558 77 ft 0 kts 270°
2026-05-06 16:11 36.74410 -6.06578 77 ft 7 kts 358°
2026-05-06 16:11 36.74421 -6.06494 77 ft 15 kts 88°
2026-05-06 16:11 36.74419 -6.06333 75 ft 20 kts 90°
2026-05-06 16:11 36.74389 -6.06205 78 ft 9 kts 115°
2026-05-06 16:12 36.74371 -6.06154 74 ft 11 kts 111°
2026-05-06 16:12 36.74399 -6.06053 77 ft 24 kts 13°
2026-05-06 16:12 36.74706 -6.05885 83 ft 75 kts 22°
2026-05-06 16:12 36.75332 -6.05574 101 ft 117 kts 17°
2026-05-06 16:13 36.76198 -6.05152 158 ft 151 kts 20°
2026-05-06 16:13 36.77215 -6.04628 466 ft 160 kts 19°
2026-05-06 16:13 36.78237 -6.04203 940 ft 152 kts 15°
2026-05-06 16:13 36.79215 -6.03723 1386 ft 152 kts 18°
2026-05-06 16:14 36.80201 -6.03247 1843 ft 151 kts 20°
2026-05-06 16:14 36.81032 -6.02420 2325 ft 157 kts 49°
2026-05-06 16:14 36.81495 -6.01163 2737 ft 164 kts 80°
2026-05-06 16:14 36.81537 -5.99723 3144 ft 169 kts 90°
2026-05-06 16:15 36.81546 -5.98291 3756 ft 159 kts 90°
2026-05-06 16:15 36.81556 -5.96922 4264 ft 156 kts 90°
2026-05-06 16:15 36.81563 -5.95578 4756 ft 153 kts 90°
2026-05-06 16:15 36.81569 -5.94260 5180 ft 152 kts 90°
2026-05-06 16:16 36.81577 -5.92936 5592 ft 153 kts 91°
2026-05-06 16:16 36.81584 -5.91606 6005 ft 154 kts 91°
2026-05-06 16:16 36.81593 -5.90268 6408 ft 155 kts 91°
2026-05-06 16:16 36.81598 -5.88916 6774 ft 157 kts 91°
2026-05-06 16:17 36.81606 -5.87547 7144 ft 159 kts 91°
2026-05-06 16:17 36.81614 -5.86158 7510 ft 162 kts 92°
2026-05-06 16:17 36.81620 -5.84745 7889 ft 164 kts 91°
2026-05-06 16:17 36.81627 -5.83314 8263 ft 166 kts 92°
2026-05-06 16:18 36.81632 -5.81868 8640 ft 167 kts 92°
2026-05-06 16:18 36.81638 -5.80401 8980 ft 171 kts 92°
2026-05-06 16:18 36.81646 -5.78899 9316 ft 176 kts 92°
2026-05-06 16:18 36.81654 -5.77364 9726 ft 176 kts 92°
2026-05-06 16:19 36.81659 -5.75845 10083 ft 177 kts 92°
2026-05-06 16:19 36.81666 -5.74309 10428 ft 179 kts 92°
2026-05-06 16:19 36.81672 -5.72744 10768 ft 181 kts 92°
2026-05-06 16:19 36.81678 -5.71165 11115 ft 184 kts 93°
2026-05-06 16:20 36.81683 -5.69572 11495 ft 182 kts 92°
2026-05-06 16:20 36.81689 -5.67992 11869 ft 182 kts 92°
2026-05-06 16:20 36.81695 -5.66413 12217 ft 184 kts 93°
2026-05-06 16:20 36.81700 -5.64804 12564 ft 186 kts 93°
2026-05-06 16:21 36.81706 -5.63180 12924 ft 187 kts 93°
2026-05-06 16:21 36.81710 -5.61556 13294 ft 188 kts 93°
2026-05-06 16:21 36.81715 -5.59922 13654 ft 189 kts 93°
2026-05-06 16:21 36.81719 -5.58276 13976 ft 190 kts 93°
2026-05-06 16:22 36.81723 -5.56628 14294 ft 191 kts 93°
2026-05-06 16:22 36.81727 -5.54963 14612 ft 192 kts 93°
2026-05-06 16:22 36.81732 -5.53296 14943 ft 192 kts 92°
2026-05-06 16:22 36.81735 -5.51622 15285 ft 194 kts 93°
2026-05-06 16:23 36.81739 -5.49935 15590 ft 195 kts 93°
2026-05-06 16:23 36.81742 -5.48234 15897 ft 196 kts 92°
2026-05-06 16:23 36.81745 -5.46528 16239 ft 197 kts 92°
2026-05-06 16:23 36.81748 -5.44817 16563 ft 197 kts 93°
2026-05-06 16:24 36.81750 -5.43098 16844 ft 199 kts 92°
2026-05-06 16:24 36.81752 -5.41369 17155 ft 200 kts 92°
2026-05-06 16:24 36.81755 -5.39628 17488 ft 201 kts 92°
2026-05-06 16:24 36.81756 -5.37908 17802 ft 202 kts 92°
2026-05-06 16:25 36.81758 -5.36155 18128 ft 202 kts 92°
2026-05-06 16:25 36.81759 -5.34391 18403 ft 204 kts 92°
2026-05-06 16:25 36.81760 -5.32612 18668 ft 206 kts 92°
2026-05-06 16:25 36.81761 -5.30822 18949 ft 207 kts 93°
2026-05-06 16:26 36.81760 -5.29015 19236 ft 209 kts 93°
2026-05-06 16:26 36.81760 -5.27191 19508 ft 211 kts 93°
2026-05-06 16:26 36.81761 -5.25353 19786 ft 213 kts 93°
2026-05-06 16:26 36.81762 -5.23503 20068 ft 214 kts 94°
2026-05-06 16:27 36.81761 -5.21638 20327 ft 216 kts 94°
2026-05-06 16:27 36.81760 -5.19755 20596 ft 217 kts 94°
2026-05-06 16:27 36.81760 -5.17873 20891 ft 215 kts 94°
2026-05-06 16:27 36.81763 -5.16083 21500 ft 200 kts 95°
2026-05-06 16:28 36.81762 -5.14362 21785 ft 203 kts 95°
2026-05-06 16:28 36.81759 -5.12592 22099 ft 205 kts 95°
2026-05-06 16:28 36.81757 -5.10809 22430 ft 206 kts 95°
2026-05-06 16:28 36.81753 -5.09018 22761 ft 207 kts 95°
2026-05-06 16:29 36.81750 -5.07214 23074 ft 209 kts 95°
2026-05-06 16:29 36.81748 -5.05390 23390 ft 211 kts 96°
2026-05-06 16:29 36.81745 -5.03553 23669 ft 213 kts 96°
2026-05-06 16:29 36.81741 -5.01695 23943 ft 215 kts 96°
2026-05-06 16:30 36.81737 -4.99825 24217 ft 216 kts 96°
2026-05-06 16:30 36.81735 -4.98581 24402 ft 217 kts 97°
2026-05-06 16:30 36.81729 -4.96052 24755 ft 219 kts 97°
2026-05-06 16:30 36.81726 -4.94144 24985 ft 222 kts 97°
2026-05-06 16:31 36.81717 -4.92228 25248 ft 224 kts 97°
2026-05-06 16:31 36.81710 -4.90257 25525 ft 225 kts 98°
2026-05-06 16:31 36.81704 -4.88318 25770 ft 227 kts 98°
2026-05-06 16:31 36.81694 -4.86285 25871 ft 239 kts 98°
2026-05-06 16:32 36.81680 -4.84150 25880 ft 253 kts 97°
2026-05-06 16:32 36.81669 -4.81931 25881 ft 263 kts 97°
2026-05-06 16:32 36.81662 -4.79614 25879 ft 271 kts 97°
2026-05-06 16:32 36.81660 -4.77233 25878 ft 277 kts 95°
2026-05-06 16:33 36.81663 -4.74812 25879 ft 280 kts 96°
2026-05-06 16:33 36.81644 -4.72363 25883 ft 284 kts 96°
2026-05-06 16:33 36.81626 -4.69884 25879 ft 287 kts 96°
2026-05-06 16:34 36.81605 -4.64874 25885 ft 291 kts 96°
2026-05-06 16:34 36.81591 -4.61990 25885 ft 292 kts 96°
2026-05-06 16:34 36.81561 -4.56913 25870 ft 293 kts 96°
2026-05-06 16:34 36.81530 -4.51823 25877 ft 295 kts 96°
2026-05-06 16:35 36.81498 -4.46714 25890 ft 295 kts 96°
2026-05-06 16:35 36.81462 -4.41581 25891 ft 296 kts 96°
2026-05-06 16:35 36.81746 -4.36433 25875 ft 304 kts 78°
2026-05-06 16:35 36.83642 -4.31735 25881 ft 304 kts 57°
2026-05-06 16:36 36.85747 -4.27154 25881 ft 305 kts 63°
2026-05-06 16:36 36.87765 -4.22513 25859 ft 305 kts 58°
2026-05-06 16:36 36.90391 -4.18329 25740 ft 307 kts 41°
2026-05-06 16:36 36.93562 -4.14866 25857 ft 301 kts 52°
2026-05-06 16:37 36.95071 -4.10073 25890 ft 297 kts 88°
2026-05-06 16:37 36.95513 -4.04927 25890 ft 300 kts 81°
2026-05-06 16:37 36.97275 -4.00197 25875 ft 303 kts 57°
2026-05-06 16:37 36.99438 -3.95691 25883 ft 303 kts 63°
2026-05-06 16:38 37.01379 -3.91020 25879 ft 302 kts 62°
2026-05-06 16:38 37.03391 -3.86414 25875 ft 302 kts 62°
2026-05-06 16:38 37.05377 -3.81787 25878 ft 301 kts 62°
2026-05-06 16:38 37.07366 -3.77167 25881 ft 302 kts 62°
2026-05-06 16:39 37.09329 -3.72597 25879 ft 302 kts 62°
2026-05-06 16:39 37.11320 -3.67955 25876 ft 303 kts 62°
2026-05-06 16:39 37.13313 -3.63300 25881 ft 303 kts 62°
2026-05-06 16:39 37.15308 -3.58635 25883 ft 304 kts 62°
2026-05-06 16:40 37.17867 -3.54489 25878 ft 301 kts 40°
2026-05-06 16:40 37.20861 -3.50821 25897 ft 301 kts 44°
2026-05-06 16:40 37.23749 -3.47011 25894 ft 302 kts 44°
2026-05-06 16:40 37.26682 -3.43238 25886 ft 301 kts 44°
2026-05-06 16:41 37.29593 -3.39457 25877 ft 300 kts 43°
2026-05-06 16:41 37.32502 -3.35680 25877 ft 300 kts 43°
2026-05-06 16:41 37.35399 -3.31917 25878 ft 300 kts 43°
2026-05-06 16:41 37.38301 -3.28139 25864 ft 300 kts 43°
2026-05-06 16:42 37.41213 -3.24354 25868 ft 300 kts 43°
2026-05-06 16:42 37.44093 -3.20585 25883 ft 299 kts 44°
2026-05-06 16:42 37.46974 -3.16829 25883 ft 298 kts 44°
2026-05-06 16:42 37.49809 -3.13117 25877 ft 298 kts 44°
2026-05-06 16:43 37.52692 -3.09347 25876 ft 299 kts 44°
2026-05-06 16:43 37.55576 -3.05564 25873 ft 299 kts 44°
2026-05-06 16:43 37.58465 -3.01775 25865 ft 300 kts 44°
2026-05-06 16:43 37.61358 -2.97973 25869 ft 300 kts 44°
2026-05-06 16:44 37.64251 -2.94169 25866 ft 301 kts 44°
2026-05-06 16:44 37.67145 -2.90357 25867 ft 301 kts 44°
2026-05-06 16:44 37.70036 -2.86544 25888 ft 299 kts 44°
2026-05-06 16:44 37.72905 -2.82758 25887 ft 298 kts 44°
2026-05-06 16:45 37.75767 -2.78973 25887 ft 297 kts 44°
2026-05-06 16:45 37.78630 -2.75187 25887 ft 298 kts 44°
2026-05-06 16:45 37.81494 -2.71394 25898 ft 298 kts 44°
2026-05-06 16:45 37.84352 -2.67604 25897 ft 298 kts 44°
2026-05-06 16:46 37.87213 -2.63806 25888 ft 298 kts 44°
2026-05-06 16:46 37.90046 -2.60039 25888 ft 300 kts 44°
2026-05-06 16:46 37.92928 -2.56204 25913 ft 300 kts 44°
2026-05-06 16:46 37.95795 -2.52382 25905 ft 299 kts 44°
2026-05-06 16:47 37.98651 -2.48574 25902 ft 298 kts 44°
2026-05-06 16:47 38.01505 -2.44760 25903 ft 298 kts 44°
2026-05-06 16:47 38.04365 -2.40935 25910 ft 298 kts 44°
2026-05-06 16:47 38.07224 -2.37110 25905 ft 298 kts 44°
2026-05-06 16:48 38.10070 -2.33293 25901 ft 297 kts 44°
2026-05-06 16:48 38.12914 -2.29476 25900 ft 298 kts 44°
2026-05-06 16:48 38.15762 -2.25649 25897 ft 299 kts 44°
2026-05-06 16:48 38.18624 -2.21797 25914 ft 299 kts 44°
2026-05-06 16:49 38.21436 -2.17920 25913 ft 298 kts 49°
2026-05-06 16:49 38.23966 -2.13743 25917 ft 298 kts 50°
2026-05-06 16:49 38.26541 -2.09617 25916 ft 298 kts 49°
2026-05-06 16:49 38.29101 -2.05475 25917 ft 297 kts 50°
2026-05-06 16:50 38.31652 -2.01347 25914 ft 297 kts 50°
2026-05-06 16:50 38.34209 -1.97206 25915 ft 297 kts 50°
2026-05-06 16:50 38.36759 -1.93070 25916 ft 298 kts 50°
2026-05-06 16:50 38.38448 -1.90325 25907 ft 297 kts 50°
2026-05-06 16:51 38.41853 -1.84793 25911 ft 296 kts 50°
2026-05-06 16:51 38.44391 -1.80661 25910 ft 296 kts 50°
2026-05-06 16:51 38.46920 -1.76540 25909 ft 295 kts 50°
2026-05-06 16:51 38.49447 -1.72411 25908 ft 295 kts 50°
2026-05-06 16:52 38.51980 -1.68279 25907 ft 295 kts 50°
2026-05-06 16:52 38.54461 -1.64214 25907 ft 294 kts 50°
2026-05-06 16:52 38.56966 -1.60107 25903 ft 292 kts 50°
2026-05-06 16:52 38.59460 -1.56015 25906 ft 291 kts 50°
2026-05-06 16:53 38.61952 -1.51926 25909 ft 292 kts 50°
2026-05-06 16:53 38.64456 -1.47809 25915 ft 294 kts 50°
2026-05-06 16:53 38.66967 -1.43674 25925 ft 295 kts 50°
2026-05-06 16:53 38.69492 -1.39506 25923 ft 296 kts 50°
2026-05-06 16:54 38.72018 -1.35340 25925 ft 296 kts 50°
2026-05-06 16:54 38.74537 -1.31173 25925 ft 296 kts 50°
2026-05-06 16:54 38.77061 -1.27000 25927 ft 297 kts 50°
2026-05-06 16:54 38.79590 -1.22809 25927 ft 297 kts 50°
2026-05-06 16:55 38.82118 -1.18622 25933 ft 297 kts 50°
2026-05-06 16:55 38.84639 -1.14423 25923 ft 297 kts 50°
2026-05-06 16:55 38.87170 -1.10224 25920 ft 298 kts 50°
2026-05-06 16:55 38.89703 -1.06002 25931 ft 299 kts 50°
2026-05-06 16:56 38.92237 -1.01779 25930 ft 298 kts 50°
2026-05-06 16:56 38.93910 -0.98985 25934 ft 298 kts 50°
2026-05-06 16:56 38.96440 -0.94758 25933 ft 298 kts 50°
2026-05-06 16:56 38.98961 -0.90541 25930 ft 298 kts 50°
2026-05-06 16:57 39.02331 -0.84896 25931 ft 297 kts 50°
2026-05-06 16:57 39.04813 -0.80726 25931 ft 297 kts 50°
2026-05-06 16:57 39.07399 -0.76590 25923 ft 294 kts 40°
2026-05-06 16:57 39.10571 -0.73330 25917 ft 292 kts 34°
2026-05-06 16:58 39.12699 -0.71068 25933 ft 294 kts 36°
2026-05-06 16:58 39.15829 -0.67699 25930 ft 293 kts 35°
2026-05-06 16:58 39.18970 -0.64365 25930 ft 293 kts 35°
2026-05-06 16:58 39.22113 -0.61004 25931 ft 293 kts 35°
2026-05-06 16:59 39.25253 -0.57650 25931 ft 293 kts 35°
2026-05-06 16:59 39.28126 -0.54575 25931 ft 293 kts 35°
2026-05-06 16:59 39.31071 -0.51704 25931 ft 291 kts 31°
2026-05-06 16:59 39.33786 -0.49077 25932 ft 292 kts 32°
2026-05-06 17:00 39.37029 -0.45919 25937 ft 292 kts 32°
2026-05-06 17:00 39.40277 -0.42763 25942 ft 292 kts 32°
2026-05-06 17:00 39.43526 -0.39597 25942 ft 292 kts 32°
2026-05-06 17:00 39.46770 -0.36433 25942 ft 292 kts 32°
2026-05-06 17:01 39.50020 -0.33261 25947 ft 292 kts 32°
2026-05-06 17:01 39.53263 -0.30091 25944 ft 292 kts 32°
2026-05-06 17:01 39.56502 -0.26922 25943 ft 292 kts 32°
2026-05-06 17:01 39.59743 -0.23747 25940 ft 293 kts 32°
2026-05-06 17:02 39.62997 -0.20554 25952 ft 293 kts 32°
2026-05-06 17:02 39.66250 -0.17358 25941 ft 293 kts 32°
2026-05-06 17:02 39.69499 -0.14164 25942 ft 293 kts 32°
2026-05-06 17:02 39.72748 -0.10964 25953 ft 293 kts 32°
2026-05-06 17:03 39.76000 -0.07760 25939 ft 293 kts 32°
2026-05-06 17:03 39.79246 -0.04555 25938 ft 293 kts 32°
2026-05-06 17:03 39.82500 -0.01346 25942 ft 293 kts 30°
2026-05-06 17:03 39.86131 0.00626 25929 ft 279 kts
2026-05-06 17:04 39.89899 0.01919 25934 ft 282 kts
2026-05-06 17:04 39.93614 0.03330 25936 ft 282 kts
2026-05-06 17:04 39.97389 0.04719 25937 ft 282 kts
2026-05-06 17:04 40.01166 0.06126 25937 ft 282 kts
2026-05-06 17:05 40.04944 0.07530 25942 ft 283 kts
2026-05-06 17:05 40.08725 0.08939 25970 ft 282 kts
2026-05-06 17:05 40.12502 0.10345 25974 ft 282 kts
2026-05-06 17:05 40.16283 0.11757 25974 ft 282 kts
2026-05-06 17:06 40.20060 0.13168 25947 ft 282 kts
2026-05-06 17:06 40.23831 0.14578 25945 ft 282 kts
2026-05-06 17:06 40.27597 0.15989 25948 ft 282 kts
2026-05-06 17:06 40.31370 0.17403 25945 ft 281 kts
2026-05-06 17:07 40.35129 0.18815 25942 ft 280 kts
2026-05-06 17:07 40.38879 0.20224 25938 ft 280 kts
2026-05-06 17:07 40.42626 0.21634 25937 ft 280 kts
2026-05-06 17:07 40.46364 0.23043 25935 ft 279 kts
2026-05-06 17:08 40.50013 0.24418 25936 ft 280 kts
2026-05-06 17:08 40.53703 0.25812 25936 ft 279 kts
2026-05-06 17:08 40.57439 0.27223 25932 ft 279 kts
2026-05-06 17:08 40.61171 0.28636 25930 ft 279 kts
2026-05-06 17:09 40.64895 0.30046 25930 ft 278 kts
2026-05-06 17:09 40.68624 0.31459 25922 ft 278 kts
2026-05-06 17:09 40.72337 0.32870 25922 ft 277 kts
2026-05-06 17:09 40.76053 0.34281 25921 ft 279 kts
2026-05-06 17:10 40.79795 0.35706 25921 ft 280 kts
2026-05-06 17:10 40.83536 0.37133 25913 ft 279 kts
2026-05-06 17:10 40.87255 0.38550 25909 ft 278 kts
2026-05-06 17:10 40.90965 0.39967 25932 ft 278 kts
2026-05-06 17:11 40.94700 0.41396 25919 ft 279 kts
2026-05-06 17:11 40.98426 0.42821 25923 ft 279 kts
2026-05-06 17:11 41.02157 0.44253 25914 ft 279 kts
2026-05-06 17:11 41.05881 0.45682 25914 ft 278 kts
2026-05-06 17:12 41.09604 0.47112 25910 ft 278 kts
2026-05-06 17:12 41.13325 0.48543 25924 ft 278 kts
2026-05-06 17:12 41.17041 0.49975 25911 ft 277 kts
2026-05-06 17:12 41.20745 0.51403 25897 ft 276 kts
2026-05-06 17:13 41.24434 0.52826 25904 ft 276 kts
2026-05-06 17:13 41.28087 0.54238 25901 ft 277 kts
2026-05-06 17:13 41.31796 0.55673 25904 ft 277 kts
2026-05-06 17:13 41.35505 0.57110 25902 ft 278 kts
2026-05-06 17:14 41.39199 0.58546 25902 ft 275 kts
2026-05-06 17:14 41.42873 0.59971 25901 ft 274 kts
2026-05-06 17:14 41.46533 0.61394 25897 ft 274 kts
2026-05-06 17:14 41.50192 0.62818 25907 ft 273 kts
2026-05-06 17:15 41.53839 0.64239 25907 ft 273 kts
2026-05-06 17:15 41.57502 0.65458 25912 ft 269 kts
2026-05-06 17:15 41.61156 0.66441 25914 ft 268 kts
2026-05-06 17:15 41.64810 0.67480 25916 ft 268 kts
2026-05-06 17:16 41.68456 0.68502 25919 ft 268 kts
2026-05-06 17:16 41.72093 0.69527 25919 ft 267 kts
2026-05-06 17:16 41.75733 0.70553 25917 ft 267 kts
2026-05-06 17:16 41.79382 0.71583 25916 ft 267 kts
2026-05-06 17:17 41.82963 0.72596 25909 ft 265 kts
2026-05-06 17:17 41.86566 0.73613 25908 ft 264 kts
2026-05-06 17:17 41.90161 0.74633 25902 ft 265 kts
2026-05-06 17:17 41.93766 0.75655 25899 ft 264 kts
2026-05-06 17:18 41.97360 0.76675 25894 ft 264 kts
2026-05-06 17:18 42.00962 0.77698 25888 ft 265 kts
2026-05-06 17:18 42.04553 0.78719 25888 ft 264 kts
2026-05-06 17:18 42.08149 0.79745 25890 ft 264 kts
2026-05-06 17:19 42.11745 0.80769 25891 ft 264 kts
2026-05-06 17:19 42.15346 0.81799 25887 ft 263 kts
2026-05-06 17:19 42.18927 0.82822 25886 ft 264 kts
2026-05-06 17:19 42.22525 0.83856 25887 ft 263 kts
2026-05-06 17:20 42.26079 0.84870 25894 ft 261 kts
2026-05-06 17:20 42.29644 0.85896 25903 ft 262 kts
2026-05-06 17:20 42.33207 0.86916 25901 ft 262 kts
2026-05-06 17:20 42.36765 0.87941 25911 ft 261 kts
2026-05-06 17:21 42.40317 0.88961 25918 ft 262 kts
2026-05-06 17:21 42.43879 0.89990 25920 ft 262 kts
2026-05-06 17:21 42.47446 0.91019 25927 ft 261 kts
2026-05-06 17:21 42.50996 0.92043 25935 ft 261 kts
2026-05-06 17:22 42.54544 0.93070 25951 ft 261 kts
2026-05-06 17:22 42.58048 0.94084 25953 ft 261 kts
2026-05-06 17:22 42.61599 0.95114 25967 ft 260 kts
2026-05-06 17:22 42.65115 0.96136 25961 ft 257 kts
2026-05-06 17:23 42.68606 0.97148 25962 ft 256 kts
2026-05-06 17:23 42.72095 0.98163 25976 ft 257 kts
2026-05-06 17:23 42.75598 0.99183 25978 ft 258 kts
2026-05-06 17:23 42.79093 0.99596 25969 ft 248 kts 349°
2026-05-06 17:24 42.82542 0.99167 25983 ft 250 kts 351°
2026-05-06 17:24 42.86021 0.98800 25985 ft 251 kts 351°
2026-05-06 17:24 42.89477 0.98417 25982 ft 248 kts 351°
2026-05-06 17:24 42.92926 0.98040 25982 ft 249 kts 351°
2026-05-06 17:25 42.96380 0.97652 25981 ft 249 kts 351°
2026-05-06 17:25 42.99841 0.97273 25984 ft 249 kts 351°
2026-05-06 17:25 43.03305 0.96889 25995 ft 249 kts 351°
2026-05-06 17:25 43.06754 0.96508 25991 ft 248 kts 351°
2026-05-06 17:26 43.10182 0.96127 25990 ft 247 kts 351°
2026-05-06 17:26 43.13604 0.95746 25984 ft 246 kts 351°
2026-05-06 17:26 43.17022 0.95368 25983 ft 246 kts 351°
2026-05-06 17:26 43.20436 0.94988 25976 ft 246 kts 351°
2026-05-06 17:27 43.23844 0.94607 25980 ft 246 kts 351°
2026-05-06 17:27 43.27244 0.94229 25980 ft 245 kts 351°
2026-05-06 17:27 43.30648 0.93849 25979 ft 245 kts 351°
2026-05-06 17:27 43.34051 0.93469 25974 ft 245 kts 351°
2026-05-06 17:28 43.37459 0.93088 25973 ft 246 kts 351°
2026-05-06 17:28 43.40693 0.92724 25974 ft 245 kts 351°
2026-05-06 17:28 43.44054 0.92348 25970 ft 245 kts 351°
2026-05-06 17:28 43.47492 0.91963 25971 ft 244 kts 351°
2026-05-06 17:29 43.50831 0.91588 25971 ft 243 kts 351°
2026-05-06 17:29 43.54205 0.91208 25970 ft 243 kts 351°
2026-05-06 17:29 43.57569 0.90829 25969 ft 243 kts 351°
2026-05-06 17:29 43.60945 0.90448 25969 ft 243 kts 351°
2026-05-06 17:30 43.64321 0.90067 25971 ft 243 kts 351°
2026-05-06 17:30 43.67697 0.89686 25968 ft 243 kts 351°
2026-05-06 17:30 43.71059 0.89306 25968 ft 242 kts 351°
2026-05-06 17:30 43.74417 0.88924 25967 ft 242 kts 351°
2026-05-06 17:31 43.77775 0.88544 25963 ft 242 kts 351°
2026-05-06 17:31 43.81133 0.88163 25962 ft 241 kts 351°
2026-05-06 17:31 43.84485 0.87782 25959 ft 243 kts 351°
2026-05-06 17:31 43.87860 0.87398 25960 ft 243 kts 351°
2026-05-06 17:32 43.91256 0.87478 25967 ft 245 kts 359°
2026-05-06 17:32 43.94668 0.87743 25966 ft 246 kts 359°
2026-05-06 17:32 43.98100 0.88007 25967 ft 247 kts 359°
2026-05-06 17:32 44.01495 0.88268 25970 ft 247 kts 359°
2026-05-06 17:33 44.04927 0.88534 25966 ft 247 kts
2026-05-06 17:33 44.08350 0.88795 25963 ft 245 kts
2026-05-06 17:33 44.11777 0.89067 25964 ft 249 kts
2026-05-06 17:33 44.15228 0.89333 25963 ft 248 kts
2026-05-06 17:34 44.18662 0.89599 25962 ft 247 kts
2026-05-06 17:34 44.22093 0.89869 25963 ft 248 kts
2026-05-06 17:34 44.25535 0.90134 25961 ft 248 kts
2026-05-06 17:34 44.28978 0.90403 25960 ft 248 kts
2026-05-06 17:35 44.32430 0.90672 25951 ft 248 kts
2026-05-06 17:35 44.35876 0.90942 25950 ft 247 kts
2026-05-06 17:35 44.39310 0.91210 25945 ft 248 kts
2026-05-06 17:36 44.46315 0.91762 25282 ft 262 kts
2026-05-06 17:36 44.49973 0.92040 24587 ft 264 kts
2026-05-06 17:36 44.53618 0.92329 23889 ft 262 kts
2026-05-06 17:36 44.57234 0.92614 23163 ft 258 kts
2026-05-06 17:37 44.60782 0.92894 22484 ft 253 kts
2026-05-06 17:37 44.64289 0.93170 21813 ft 252 kts
2026-05-06 17:37 44.67787 0.93448 21151 ft 251 kts
2026-05-06 17:37 44.71265 0.93720 20486 ft 250 kts
2026-05-06 17:38 44.74718 0.93995 19903 ft 248 kts
2026-05-06 17:38 44.78115 0.94265 19264 ft 248 kts
2026-05-06 17:38 44.81616 0.94542 18599 ft 248 kts
2026-05-06 17:38 44.85008 0.94814 17920 ft 241 kts
2026-05-06 17:39 44.88278 0.95072 17293 ft 236 kts
2026-05-06 17:39 44.91548 0.95332 16671 ft 234 kts
2026-05-06 17:39 44.94796 0.95592 16056 ft 233 kts
2026-05-06 17:39 44.98023 0.95847 15442 ft 232 kts
2026-05-06 17:40 45.01251 0.96107 14827 ft 232 kts
2026-05-06 17:40 45.04473 0.96365 14215 ft 232 kts
2026-05-06 17:40 45.07706 0.96624 13585 ft 233 kts
2026-05-06 17:40 45.10923 0.96882 12956 ft 230 kts
2026-05-06 17:41 45.14108 0.97136 12345 ft 228 kts
2026-05-06 17:41 45.17223 0.97383 11752 ft 222 kts
2026-05-06 17:41 45.20279 0.97630 11172 ft 219 kts
2026-05-06 17:41 45.23338 0.97874 10590 ft 221 kts
2026-05-06 17:42 45.26396 0.98122 10006 ft 220 kts
2026-05-06 17:42 45.29448 0.98362 9401 ft 218 kts
2026-05-06 17:42 45.32420 0.98604 8831 ft 216 kts
2026-05-06 17:42 45.35415 0.98843 8260 ft 214 kts
2026-05-06 17:43 45.38387 0.99082 7699 ft 213 kts
2026-05-06 17:43 45.41359 0.99323 7133 ft 213 kts
2026-05-06 17:43 45.44285 0.99561 6575 ft 207 kts
2026-05-06 17:43 45.47141 0.99792 6018 ft 203 kts
2026-05-06 17:44 45.49947 1.00011 5491 ft 200 kts
2026-05-06 17:44 45.51763 1.00153 5231 ft 195 kts
2026-05-06 17:44 45.54472 1.00354 4873 ft 195 kts
2026-05-06 17:44 45.58046 1.00613 4396 ft 193 kts
2026-05-06 17:45 45.60739 1.00766 4031 ft 194 kts
2026-05-06 17:45 45.63434 1.00898 3699 ft 192 kts
2026-05-06 17:45 45.66014 1.01018 3687 ft 181 kts
2026-05-06 17:45 45.67684 1.01249 3684 ft 177 kts 13°
2026-05-06 17:46 45.69820 1.02791 3685 ft 175 kts 34°
2026-05-06 17:46 45.71838 1.04705 3687 ft 169 kts 33°
2026-05-06 17:46 45.73752 1.06489 3688 ft 161 kts 33°
2026-05-06 17:46 45.75634 1.08249 3572 ft 166 kts 33°
2026-05-06 17:47 45.77641 1.10126 3121 ft 176 kts 34°
2026-05-06 17:47 45.79593 1.11955 2666 ft 155 kts 33°
2026-05-06 17:47 45.81311 1.13560 2262 ft 143 kts 33°
2026-05-06 17:47 45.82952 1.15095 1875 ft 128 kts 33°
2026-05-06 17:48 45.84216 1.16275 1565 ft 102 kts 31°
2026-05-06 17:48 45.85333 1.17334 1299 ft 82 kts 32°
2026-05-06 17:48 45.85933 1.17895 1303 ft 17 kts 33°
2026-05-06 17:48 45.86090 1.17974 1303 ft 9 kts 328°
2026-05-06 17:49 45.86145 1.17883 1303 ft 0 kts 301°
2026-05-06 17:49 45.86156 1.17862 1303 ft 9 kts 315°
2026-05-06 17:49 45.86244 1.17868 1304 ft 17 kts 31°
2026-05-06 17:49 45.86344 1.17947 1305 ft 11 kts 316°
2026-05-06 17:50 45.86331 1.17913 1305 ft 0 kts 214°